Hourly Data Report for October 30, 2014

All times are specified in Local Standard Time (LST). Add 1 hour to adjust for Daylight Saving Time where and when it is observed.

QIKIQTARJUAQ A
NUNAVUT

67°32'48.000" N
64°01'54.000" W
5.50 m
2400577
YVM

Download Data

Hourly Data (October 2014)
Hourly Data Report for October 30, 2014
Temp Definition
°C
Dew Point Temp Definition
°C
Rel Hum Definition
%
Wind Dir Definition
10's deg

Wind Spd Definition
km/h
Visibility Definition
km
Stn Press Definition
kPa
Hmdx Definition


Wind Chill Definition


Weather Definition


TIME
00:00 Legend Double Dagger -2.1 -4.2 86 7 9 16.1 100.74   -6 LegendNANA
01:00 Legend Double Dagger -1.2 -3.1 87 3 18 16.1 100.74   -6 LegendNANA
02:00 Legend Double Dagger -1.1 -3.0 87 1 22 16.1 100.78   -7 Snow
03:00 Legend Double Dagger -1.4 -3.0 89 2 22 16.1 100.80   -7 Snow
04:00 Legend Double Dagger -1.4 -2.8 90 35 13 16.1 100.84   -6 Snow
05:00 Legend Double Dagger -1.5 -2.8 91 1 18 16.1 100.85   -7 Snow
06:00 Legend Double Dagger -1.6 -2.9 91 2 17 16.1 100.90   -7 Snow
07:00 Legend Double Dagger -1.8 -2.9 92 2 17 4.8 100.94   -7 Snow
08:00 Legend Double Dagger -2.0 -3.0 93 2 15 4.8 100.97   -7 Snow
09:00 Legend Double Dagger -2.0 -3.1 92 2 13 16.1 100.99   -6 LegendNANA
10:00 Legend Double Dagger -1.9 -3.2 91 2 13 16.1 101.00   -6 Snow
11:00 Legend Double Dagger -1.9 -3.3 90 2 11 16.1 101.02   -6 LegendNANA
12:00 Legend Double Dagger -1.9 -3.3 90 1 9 16.1 101.03   -5 LegendNANA
13:00 Legend Double Dagger -1.9 -3.6 88 3 9 16.1 101.06   -5 LegendNANA
14:00 Legend Double Dagger -2.0 -3.4 90 2 9 9.7 101.10   -5 Snow
15:00 Legend Double Dagger -2.1 -3.2 92 1 9 4.8 101.13   -6 Snow
16:00 Legend Double Dagger -2.3 -3.3 93 34 9 4.8 101.14   -6 Snow
17:00 Legend Double Dagger -2.4 -3.4 93 36 9 4.8 101.15   -6 Snow
18:00 Legend Double Dagger -2.5 -3.3 94 33 4 3.2 101.18   -4 Snow
19:00 Legend Double Dagger -3.0 -4.0 93   0 16.1 101.18     Snow
20:00 Legend Double Dagger -2.8 -3.9 92 9 5 16.1 101.19   -5 Snow
21:00 Legend Double Dagger -2.4 -4.1 88 7 8 16.1 101.18   -6 Snow
22:00 Legend Double Dagger -2.6 -4.3 88 12 5 16.1 101.15   -5 Snow
23:00 Legend Double Dagger -2.8 -4.3 90 16 5 16.1 101.15   -5 LegendNANA

Notes on Data Quality.

Legend

  • E = Estimated
  • M = Missing
  • NA = Not Available
  • ‡ = Partner data that is not subject to review by the National Climate Archives
Date modified: